When you browse on this site, cookies collect data to enhance your experience and personalize the content and advertising you see.
Visit our Privacy Policy to learn more. By continuing to use the site, you agree to this use of cookies and data.
  • In France
  • List of Countries
  • For 7 days
  • Water Temperature
  • Satellite Maps
  • Weather Map
  • Weather Widgets
  • user-avatar
    Login

    Hourly Weather Medellín

    Today, 20 November, Tuesday

    Time Temperature Precipitation Wind Pressure Humidity
    00:00 +13°C° 0.5 mm 0 mps 585 mmHg 95%
    01:00 +13°C° 0 mm 0 mps 585 mmHg 94%
    02:00 +13°C° 0.7 mm 0 mps 585 mmHg 94%
    03:00 +13°C° 0.7 mm 0 mps 585 mmHg 94%
    04:00 +12°C° 0.7 mm 0 mps 585 mmHg 94%
    05:00 +13°C° 0.4 mm 0 mps 585 mmHg 93%
    06:00 +13°C° 0.4 mm 0 mps 586 mmHg 92%
    07:00 +14°C° 0.4 mm 0 mps 586 mmHg 91%
    08:00 +15°C° 0.2 mm 0 mps 587 mmHg 83%
    09:00 +17°C° 0.2 mm 0 mps 588 mmHg 76%
    10:00 +21°C° 0.2 mm 1 mps 589 mmHg 68%
    11:00 +20°C° 0.6 mm 0 mps 588 mmHg 68%
    12:00 +21°C° 0.6 mm 0 mps 588 mmHg 67%
    13:00 +21°C° 0.6 mm 0 mps 588 mmHg 67%
    14:00 +23°C° 1.2 mm 1 mps 587 mmHg 70%
    15:00 +22°C° 1.2 mm 1 mps 587 mmHg 73%
    16:00 +21°C° 1.2 mm 1 mps 586 mmHg 76%
    17:00 +20°C° 1.4 mm 1 mps 586 mmHg 81%
    18:00 +18°C° 1.4 mm 1 mps 586 mmHg 87%
    19:00 +15°C° 1.4 mm 1 mps 585 mmHg 92%
    20:00 +15°C° 0.6 mm 1 mps 586 mmHg 93%
    21:00 +14°C° 0.6 mm 0 mps 586 mmHg 93%
    22:00 +14°C° 0.6 mm 0 mps 587 mmHg 94%
    23:00 +14°C° 0.4 mm 0 mps 586 mmHg 94%

    Tomorrow, 21 November, Wednesday

    Time Temperature Precipitation Wind Pressure Humidity
    00:00 +13°C° 0.4 mm 0 mps 586 mmHg 94%
    01:00 +13°C° 0.4 mm 0 mps 586 mmHg 94%
    02:00 +13°C° 0.4 mm 0 mps 586 mmHg 94%
    03:00 +13°C° 0.4 mm 0 mps 586 mmHg 94%
    04:00 +13°C° 0.4 mm 0 mps 585 mmHg 94%
    05:00 +13°C° 0.4 mm 0 mps 586 mmHg 93%
    06:00 +13°C° 0.4 mm 0 mps 586 mmHg 92%
    07:00 +14°C° 0.4 mm 0 mps 586 mmHg 91%
    08:00 +15°C° 0.4 mm 0 mps 587 mmHg 87%
    09:00 +16°C° 0.4 mm 0 mps 588 mmHg 83%
    10:00 +17°C° 0.4 mm 0 mps 588 mmHg 80%
    11:00 +18°C° 0.7 mm 0 mps 588 mmHg 77%
    12:00 +19°C° 0.7 mm 0 mps 588 mmHg 75%
    13:00 +20°C° 0.7 mm 0 mps 588 mmHg 72%
    14:00 +19°C° 1.5 mm 0 mps 587 mmHg 75%
    15:00 +18°C° 1.5 mm 0 mps 586 mmHg 79%
    16:00 +17°C° 1.5 mm 0 mps 586 mmHg 82%
    17:00 +16°C° 1.3 mm 0 mps 586 mmHg 86%
    18:00 +15°C° 1.3 mm 0 mps 586 mmHg 89%
    19:00 +14°C° 1.3 mm 0 mps 585 mmHg 92%
    20:00 +14°C° 1 mm 0 mps 586 mmHg 93%
    21:00 +14°C° 1 mm 0 mps 586 mmHg 94%
    22:00 +14°C° 1 mm 0 mps 587 mmHg 95%
    23:00 +13°C° 0.7 mm 0 mps 586 mmHg 95%

    Day after tomorrow, 22 November, Thursday

    Time Temperature Precipitation Wind Pressure Humidity
    00:00 +13°C° 0.7 mm 0 mps 586 mmHg 95%
    01:00 +13°C° 0.7 mm 0 mps 586 mmHg 96%
    02:00 +13°C° 0.6 mm 0 mps 586 mmHg 96%
    03:00 +13°C° 0.6 mm 0 mps 585 mmHg 96%
    04:00 +13°C° 0.6 mm 0 mps 585 mmHg 96%
    05:00 +13°C° 0.7 mm 0 mps 586 mmHg 96%
    06:00 +13°C° 0.7 mm 0 mps 586 mmHg 96%
    07:00 +13°C° 0.7 mm 0 mps 586 mmHg 95%
    08:00 +14°C° 0.7 mm 0 mps 587 mmHg 93%
    09:00 +14°C° 0.7 mm 0 mps 587 mmHg 91%
    10:00 +16°C° 0.7 mm 1 mps 588 mmHg 88%
    11:00 +16°C° 1.1 mm 1 mps 587 mmHg 88%
    12:00 +16°C° 1.1 mm 1 mps 587 mmHg 88%
    13:00 +16°C° 1.1 mm 1 mps 586 mmHg 88%
    14:00 +15°C° 1.4 mm 1 mps 586 mmHg 89%
    15:00 +15°C° 1.4 mm 1 mps 585 mmHg 91%
    16:00 +13°C° 1.4 mm 0 mps 584 mmHg 92%
    17:00 +13°C° 0.8 mm 0 mps 584 mmHg 93%
    18:00 +12°C° 0.8 mm 0 mps 585 mmHg 94%
    19:00 +12°C° 0.8 mm 0 mps 585 mmHg 95%
    20:00 +12°C° 0.5 mm 0 mps 585 mmHg 95%
    21:00 +12°C° 0.5 mm 0 mps 585 mmHg 95%
    22:00 +12°C° 0.5 mm 0 mps 586 mmHg 95%
    23:00 +11°C° 0.6 mm 0 mps 585 mmHg 95%

    23 November, Friday

    Time Temperature Precipitation Wind Pressure Humidity
    00:00 +11°C° 0.6 mm 0 mps 585 mmHg 95%
    01:00 +11°C° 0.6 mm 0 mps 585 mmHg 95%
    02:00 +11°C° 0.8 mm 0 mps 585 mmHg 95%
    03:00 +11°C° 0.8 mm 0 mps 584 mmHg 95%
    04:00 +11°C° 0.8 mm 0 mps 584 mmHg 95%
    05:00 +11°C° 1 mm 0 mps 584 mmHg 95%
    06:00 +11°C° 1 mm 0 mps 585 mmHg 95%
    07:00 +11°C° 1 mm 0 mps 585 mmHg 95%
    08:00 +12°C° 0.9 mm 0 mps 586 mmHg 94%
    09:00 +13°C° 0.9 mm 0 mps 587 mmHg 94%
    10:00 +13°C° 0.9 mm 0 mps 587 mmHg 93%
    11:00 +15°C° 0.7 mm 1 mps 587 mmHg 88%
    12:00 +16°C° 0.7 mm 1 mps 587 mmHg 82%
    13:00 +18°C° 0.7 mm 1 mps 587 mmHg 77%
    14:00 +18°C° 0.9 mm 1 mps 586 mmHg 81%
    15:00 +16°C° 0.9 mm 1 mps 585 mmHg 84%
    16:00 +16°C° 0.9 mm 1 mps 585 mmHg 88%
    17:00 +14°C° 0.6 mm 0 mps 585 mmHg 91%
    18:00 +13°C° 0.6 mm 0 mps 585 mmHg 93%
    19:00 +12°C° 0.6 mm 0 mps 585 mmHg 96%
    20:00 +12°C° 0.4 mm 0 mps 585 mmHg 96%
    21:00 +12°C° 0.4 mm 0 mps 585 mmHg 96%
    22:00 +11°C° 0.4 mm 0 mps 586 mmHg 96%
    23:00 +11°C° 0.5 mm 0 mps 585 mmHg 96%

    24 November, Saturday

    Time Temperature Precipitation Wind Pressure Humidity
    00:00 +11°C° 0.5 mm 0 mps 585 mmHg 96%
    01:00 +11°C° 0.5 mm 0 mps 585 mmHg 96%
    02:00 +11°C° 0.8 mm 0 mps 584 mmHg 96%
    03:00 +10°C° 0.8 mm 0 mps 584 mmHg 96%
    04:00 +10°C° 0.8 mm 0 mps 584 mmHg 95%
    05:00 +11°C° 0.9 mm 0 mps 584 mmHg 95%
    06:00 +11°C° 0.9 mm 0 mps 585 mmHg 94%
    07:00 +11°C° 0.9 mm 0 mps 585 mmHg 93%
    08:00 +13°C° 0.5 mm 0 mps 586 mmHg 88%
    09:00 +14°C° 0.5 mm 0 mps 587 mmHg 83%
    10:00 +15°C° 0.5 mm 0 mps 588 mmHg 77%
    11:00 +17°C° 0.3 mm 0 mps 588 mmHg 71%
    12:00 +20°C° 0.3 mm 1 mps 587 mmHg 65%
    13:00 +21°C° 0.3 mm 1 mps 587 mmHg 59%
    14:00 +20°C° 0.4 mm 1 mps 587 mmHg 64%
    15:00 +19°C° 0.4 mm 1 mps 586 mmHg 69%
    16:00 +18°C° 0.4 mm 1 mps 585 mmHg 75%
    17:00 +15°C° 0.5 mm 0 mps 585 mmHg 79%
    18:00 +14°C° 0.5 mm 0 mps 585 mmHg 84%
    19:00 +12°C° 0.5 mm 0 mps 585 mmHg 89%
    20:00 +12°C° 0.4 mm 0 mps 585 mmHg 89%
    21:00 +12°C° 0.4 mm 0 mps 585 mmHg 88%
    22:00 +11°C° 0.4 mm 0 mps 585 mmHg 88%
    23:00 +11°C° 0.5 mm 0 mps 585 mmHg 89%

    25 November, Sunday

    Time Temperature Precipitation Wind Pressure Humidity
    00:00 +11°C° 0.5 mm 0 mps 585 mmHg 89%
    01:00 +11°C° 0.5 mm 0 mps 584 mmHg 89%
    02:00 +11°C° 0.7 mm 0 mps 584 mmHg 90%
    03:00 +11°C° 0.7 mm 0 mps 584 mmHg 91%
    04:00 +10°C° 0.7 mm 0 mps 584 mmHg 92%
    05:00 +11°C° 0.7 mm 0 mps 584 mmHg 92%
    06:00 +11°C° 0.7 mm 0 mps 585 mmHg 92%
    07:00 +11°C° 0.7 mm 0 mps 585 mmHg 92%
    08:00 +13°C° 0.5 mm 0 mps 586 mmHg 87%
    09:00 +15°C° 0.5 mm 1 mps 587 mmHg 82%
    10:00 +18°C° 0.5 mm 1 mps 588 mmHg 77%
    11:00 +19°C° 0.2 mm 1 mps 588 mmHg 72%
    12:00 +20°C° 0.2 mm 1 mps 587 mmHg 67%
    13:00 +21°C° 0.2 mm 1 mps 587 mmHg 62%
    14:00 +21°C° 0.2 mm 1 mps 587 mmHg 66%
    15:00 +20°C° 0.2 mm 1 mps 586 mmHg 70%
    16:00 +19°C° 0.2 mm 1 mps 585 mmHg 75%
    17:00 +16°C° 0.2 mm 0 mps 585 mmHg 80%
    18:00 +14°C° 0.2 mm 0 mps 585 mmHg 86%
    19:00 +13°C° 0.2 mm 0 mps 585 mmHg 91%
    20:00 +13°C° 0.1 mm 0 mps 585 mmHg 92%
    21:00 +12°C° 0.1 mm 0 mps 585 mmHg 92%
    22:00 +12°C° 0.1 mm 0 mps 585 mmHg 92%
    23:00 +12°C° 0.1 mm 0 mps 585 mmHg 93%
    Show more